Time,TemperatureF,DewpointF,PressureIn,WindDirection,WindDirectionDegrees,WindSpeedMPH,WindSpeedGustMPH,Humidity,HourlyPrecipIn,Conditions,Clouds,dailyrainin,SoftwareType,DateUTC
2013-04-03 00:02:00,52.0,49.0,30.06,WSW,252,0.0,-999.0,88,-99.99,,,-99.99,,2013-04-03 07:02:00,
2013-04-03 00:11:00,52.0,49.0,30.06,WSW,252,0.0,-999.0,88,-99.99,,,-99.99,,2013-04-03 07:11:00,
2013-04-03 00:22:00,52.0,49.0,30.05,WSW,252,0.0,-999.0,89,-99.99,,,-99.99,,2013-04-03 07:22:00,
2013-04-03 00:32:00,52.0,49.0,30.06,WSW,252,0.0,-999.0,89,-99.99,,,-99.99,,2013-04-03 07:32:00,
2013-04-03 00:42:00,52.0,49.0,30.06,WSW,252,0.0,-999.0,89,-99.99,,,-99.99,,2013-04-03 07:42:00,
2013-04-03 00:53:00,51.0,48.0,30.05,WSW,252,0.0,-999.0,89,-99.99,,,-99.99,,2013-04-03 07:53:00,
2013-04-03 01:02:00,51.0,48.0,30.06,WSW,252,0.0,-999.0,89,-99.99,,,-99.99,,2013-04-03 08:02:00,
2013-04-03 01:11:00,51.0,48.0,30.06,WSW,252,0.0,-999.0,89,-99.99,,,-99.99,,2013-04-03 08:11:00,
2013-04-03 01:22:00,51.0,48.0,30.06,WSW,252,0.0,-999.0,89,-99.99,,,-99.99,,2013-04-03 08:22:00,
2013-04-03 01:32:00,51.0,48.0,30.06,WSW,252,0.0,-999.0,90,-99.99,,,-99.99,,2013-04-03 08:32:00,
2013-04-03 01:42:00,51.0,48.0,30.06,WSW,252,0.0,-999.0,90,-99.99,,,-99.99,,2013-04-03 08:42:00,
2013-04-03 01:52:00,50.0,47.0,30.06,WSW,252,0.0,-999.0,90,-99.99,,,-99.99,,2013-04-03 08:52:00,
2013-04-03 02:01:00,50.0,47.0,30.06,WSW,252,0.0,-999.0,89,-99.99,,,-99.99,,2013-04-03 09:01:00,
2013-04-03 02:11:00,50.0,47.0,30.06,WSW,252,0.0,-999.0,89,-99.99,,,-99.99,,2013-04-03 09:11:00,
2013-04-03 02:22:00,50.0,47.0,30.06,WSW,252,0.0,-999.0,90,-99.99,,,-99.99,,2013-04-03 09:22:00,
2013-04-03 02:32:00,50.0,47.0,30.06,WSW,252,0.0,-999.0,90,-99.99,,,-99.99,,2013-04-03 09:32:00,
2013-04-03 02:42:00,50.0,47.0,30.06,WSW,252,0.0,-999.0,90,-99.99,,,-99.99,,2013-04-03 09:42:00,
2013-04-03 02:53:00,49.0,46.0,30.06,WSW,252,0.0,-999.0,90,-99.99,,,-99.99,,2013-04-03 09:53:00,
2013-04-03 03:02:00,49.0,46.0,30.06,WSW,252,0.0,-999.0,90,-99.99,,,-99.99,,2013-04-03 10:02:00,
2013-04-03 03:12:00,49.0,46.0,30.06,WSW,252,0.0,-999.0,90,-99.99,,,-99.99,,2013-04-03 10:12:00,
2013-04-03 03:22:00,49.0,46.0,30.06,WSW,252,0.0,-999.0,90,-99.99,,,-99.99,,2013-04-03 10:22:00,
2013-04-03 03:33:00,49.0,46.0,30.06,WSW,252,0.0,-999.0,90,-99.99,,,-99.99,,2013-04-03 10:33:00,
2013-04-03 03:42:00,49.0,46.0,30.06,WSW,252,0.0,-999.0,90,-99.99,,,-99.99,,2013-04-03 10:42:00,
2013-04-03 03:52:00,48.0,45.0,30.06,WSW,252,0.0,-999.0,90,-99.99,,,-99.99,,2013-04-03 10:52:00,
2013-04-03 04:02:00,48.0,45.0,30.06,WSW,252,0.0,-999.0,90,-99.99,,,-99.99,,2013-04-03 11:02:00,
2013-04-03 04:12:00,48.0,45.0,30.06,WSW,252,0.0,-999.0,90,-99.99,,,-99.99,,2013-04-03 11:12:00,
2013-04-03 04:22:00,47.0,45.0,30.07,WSW,252,0.0,-999.0,91,-99.99,,,-99.99,,2013-04-03 11:22:00,
2013-04-03 04:32:00,47.0,45.0,30.07,WSW,252,0.0,-999.0,91,-99.99,,,-99.99,,2013-04-03 11:32:00,
2013-04-03 04:41:00,47.0,45.0,30.07,WSW,252,0.0,-999.0,91,-99.99,,,-99.99,,2013-04-03 11:41:00,
2013-04-03 04:52:00,47.0,45.0,30.07,WSW,252,0.0,-999.0,91,-99.99,,,-99.99,,2013-04-03 11:52:00,
2013-04-03 05:01:00,48.0,45.0,30.07,WSW,252,0.0,-999.0,91,-99.99,,,-99.99,,2013-04-03 12:01:00,
2013-04-03 05:12:00,48.0,45.0,30.07,WSW,252,0.0,-999.0,91,-99.99,,,-99.99,,2013-04-03 12:12:00,
2013-04-03 05:22:00,48.0,45.0,30.07,WSW,252,0.0,-999.0,91,-99.99,,,-99.99,,2013-04-03 12:22:00,
2013-04-03 05:32:00,49.0,47.0,30.07,WSW,252,0.0,-999.0,92,-99.99,,,-99.99,,2013-04-03 12:32:00,
2013-04-03 05:41:00,49.0,47.0,30.07,WSW,252,0.0,-999.0,92,-99.99,,,-99.99,,2013-04-03 12:41:00,
2013-04-03 05:52:00,49.0,47.0,30.08,WSW,252,0.0,-999.0,92,-99.99,,,-99.99,,2013-04-03 12:52:00,
2013-04-03 06:02:00,50.0,48.0,30.08,WSW,252,0.0,-999.0,92,-99.99,,,-99.99,,2013-04-03 13:02:00,
2013-04-03 06:12:00,50.0,48.0,30.08,WSW,252,0.0,-999.0,92,-99.99,,,-99.99,,2013-04-03 13:12:00,
2013-04-03 06:22:00,49.0,47.0,30.08,WSW,252,0.0,-999.0,92,-99.99,,,-99.99,,2013-04-03 13:22:00,
2013-04-03 06:32:00,49.0,47.0,30.09,WSW,252,0.0,-999.0,92,-99.99,,,-99.99,,2013-04-03 13:32:00,
2013-04-03 06:41:00,49.0,47.0,30.09,WSW,252,0.0,-999.0,92,-99.99,,,-99.99,,2013-04-03 13:41:00,
2013-04-03 06:52:00,48.0,46.0,30.09,WSW,252,0.0,-999.0,92,-99.99,,,-99.99,,2013-04-03 13:52:00,
2013-04-03 07:02:00,48.0,46.0,30.09,WSW,252,0.0,-999.0,92,-99.99,,,-99.99,,2013-04-03 14:02:00,
2013-04-03 07:12:00,48.0,46.0,30.09,WSW,252,0.0,-999.0,92,-99.99,,,-99.99,,2013-04-03 14:12:00,
2013-04-03 07:21:00,48.0,46.0,30.09,WSW,252,0.0,-999.0,92,-99.99,,,-99.99,,2013-04-03 14:21:00,
2013-04-03 07:31:00,47.0,45.0,30.09,WSW,252,0.0,-999.0,92,-99.99,,,-99.99,,2013-04-03 14:31:00,
2013-04-03 07:42:00,47.0,45.0,30.09,WSW,252,0.0,-999.0,92,-99.99,,,-99.99,,2013-04-03 14:42:00,
2013-04-03 07:52:00,47.0,45.0,30.10,WSW,252,0.0,-999.0,93,-99.99,,,-99.99,,2013-04-03 14:52:00,
2013-04-03 08:01:00,48.0,46.0,30.10,WSW,252,0.0,-999.0,93,-99.99,,,-99.99,,2013-04-03 15:01:00,
2013-04-03 08:12:00,48.0,46.0,30.10,WSW,252,0.0,-999.0,93,-99.99,,,-99.99,,2013-04-03 15:12:00,
2013-04-03 08:22:00,49.0,47.0,30.10,WSW,252,0.0,-999.0,93,-99.99,,,-99.99,,2013-04-03 15:22:00,
2013-04-03 08:32:00,51.0,49.0,30.10,WSW,252,0.0,-999.0,93,-99.99,,,-99.99,,2013-04-03 15:32:00,
2013-04-03 08:42:00,51.0,49.0,30.10,WSW,252,0.0,-999.0,93,-99.99,,,-99.99,,2013-04-03 15:42:00,
2013-04-03 08:53:00,52.0,50.0,30.10,WSW,252,0.0,-999.0,92,-99.99,,,-99.99,,2013-04-03 15:53:00,
2013-04-03 09:02:00,52.0,50.0,30.10,WSW,252,0.0,-999.0,92,-99.99,,,-99.99,,2013-04-03 16:02:00,
2013-04-03 09:12:00,52.0,50.0,30.10,WSW,252,0.0,-999.0,92,-99.99,,,-99.99,,2013-04-03 16:12:00,
2013-04-03 09:23:00,57.0,52.0,30.10,WSW,252,0.0,-999.0,84,-99.99,,,-99.99,,2013-04-03 16:23:00,
2013-04-03 09:32:00,59.0,52.0,30.09,WSW,252,0.0,-999.0,77,-99.99,,,-99.99,,2013-04-03 16:32:00,
2013-04-03 09:44:00,59.0,52.0,30.09,WSW,252,0.0,-999.0,77,-99.99,,,-99.99,,2013-04-03 16:44:00,
2013-04-03 09:52:00,62.0,52.0,30.09,WSW,252,0.0,-999.0,70,-99.99,,,-99.99,,2013-04-03 16:52:00,
2013-04-03 10:02:00,63.0,52.0,30.10,WSW,252,1.0,-999.0,67,-99.99,,,-99.99,,2013-04-03 17:02:00,
2013-04-03 10:12:00,63.0,52.0,30.10,WSW,252,1.0,-999.0,67,-99.99,,,-99.99,,2013-04-03 17:12:00,
2013-04-03 10:22:00,65.0,53.0,30.10,West,260,1.0,-999.0,65,-99.99,,,-99.99,,2013-04-03 17:22:00,
2013-04-03 10:32:00,66.0,54.0,30.10,West,277,1.0,-999.0,65,-99.99,,,-99.99,,2013-04-03 17:32:00,
2013-04-03 10:45:00,66.0,54.0,30.10,West,277,1.0,-999.0,65,-99.99,,,-99.99,,2013-04-03 17:45:00,
2013-04-03 10:53:00,67.0,54.0,30.10,West,269,1.0,-999.0,64,-99.99,,,-99.99,,2013-04-03 17:53:00,
2013-04-03 11:02:00,66.0,53.0,30.10,West,274,3.0,-999.0,63,-99.99,,,-99.99,,2013-04-03 18:02:00,
2013-04-03 11:12:00,66.0,53.0,30.10,West,274,3.0,-999.0,63,-99.99,,,-99.99,,2013-04-03 18:12:00,
2013-04-03 11:22:00,67.0,54.0,30.10,SW,236,1.0,-999.0,63,-99.99,,,-99.99,,2013-04-03 18:22:00,
2013-04-03 11:32:00,68.0,54.0,30.09,West,265,1.0,-999.0,61,-99.99,,,-99.99,,2013-04-03 18:32:00,
2013-04-03 11:52:00,69.0,53.0,30.08,WSW,240,0.0,-999.0,57,-99.99,,,-99.99,,2013-04-03 18:52:00,
2013-04-03 12:01:00,70.0,52.0,30.08,WSW,244,0.0,-999.0,53,-99.99,,,-99.99,,2013-04-03 19:01:00,
2013-04-03 12:11:00,70.0,52.0,30.08,WSW,244,0.0,-999.0,53,-99.99,,,-99.99,,2013-04-03 19:11:00,
2013-04-03 12:21:00,71.0,52.0,30.08,WNW,292,1.0,-999.0,52,-99.99,,,-99.99,,2013-04-03 19:21:00,
2013-04-03 12:42:00,72.0,53.0,30.08,WSW,257,2.0,-999.0,52,-99.99,,,-99.99,,2013-04-03 19:42:00,
2013-04-03 12:52:00,71.0,56.0,30.08,SW,231,4.0,-999.0,59,-99.99,,,-99.99,,2013-04-03 19:52:00,
2013-04-03 13:02:00,70.0,55.0,30.07,NNW,338,4.0,-999.0,60,-99.99,,,-99.99,,2013-04-03 20:02:00,
2013-04-03 13:12:00,70.0,55.0,30.07,NNW,338,4.0,-999.0,60,-99.99,,,-99.99,,2013-04-03 20:12:00,
2013-04-03 13:22:00,69.0,56.0,30.08,WSW,238,4.0,-999.0,63,-99.99,,,-99.99,,2013-04-03 20:22:00,
2013-04-03 13:32:00,68.0,55.0,30.08,WSW,257,4.0,-999.0,64,-99.99,,,-99.99,,2013-04-03 20:32:00,
2013-04-03 13:42:00,68.0,55.0,30.08,WSW,257,4.0,-999.0,64,-99.99,,,-99.99,,2013-04-03 20:42:00,
2013-04-03 13:52:00,69.0,56.0,30.08,South,190,4.0,-999.0,63,-99.99,,,-99.99,,2013-04-03 20:52:00,
2013-04-03 14:01:00,69.0,56.0,30.08,South,190,4.0,-999.0,63,-99.99,,,-99.99,,2013-04-03 21:01:00,
2013-04-03 14:12:00,69.0,56.0,30.08,South,190,4.0,-999.0,63,-99.99,,,-99.99,,2013-04-03 21:12:00,
2013-04-03 14:22:00,68.0,55.0,30.07,West,260,4.0,-999.0,64,-99.99,,,-99.99,,2013-04-03 21:22:00,
2013-04-03 14:32:00,68.0,55.0,30.07,NW,305,4.0,-999.0,64,-99.99,,,-99.99,,2013-04-03 21:32:00,
2013-04-03 14:42:00,68.0,55.0,30.07,NW,305,4.0,-999.0,64,-99.99,,,-99.99,,2013-04-03 21:42:00,
2013-04-03 14:52:00,69.0,55.0,30.07,WSW,250,3.0,-999.0,61,-99.99,,,-99.99,,2013-04-03 21:52:00,
2013-04-03 15:02:00,70.0,56.0,30.06,West,277,3.0,-999.0,61,-99.99,,,-99.99,,2013-04-03 22:02:00,
2013-04-03 15:12:00,70.0,56.0,30.06,West,277,3.0,-999.0,61,-99.99,,,-99.99,,2013-04-03 22:12:00,
2013-04-03 15:22:00,70.0,55.0,30.06,WSW,252,2.0,-999.0,60,-99.99,,,-99.99,,2013-04-03 22:22:00,
2013-04-03 15:32:00,70.0,55.0,30.05,WSW,245,2.0,-999.0,58,-99.99,,,-99.99,,2013-04-03 22:32:00,
2013-04-03 15:42:00,70.0,55.0,30.05,WSW,245,2.0,-999.0,58,-99.99,,,-99.99,,2013-04-03 22:42:00,
2013-04-03 15:52:00,71.0,54.0,30.04,WNW,291,2.0,-999.0,55,-99.99,,,-99.99,,2013-04-03 22:52:00,
2013-04-03 16:01:00,72.0,55.0,30.03,WSW,250,0.0,-999.0,55,-99.99,,,-99.99,,2013-04-03 23:01:00,
2013-04-03 16:12:00,72.0,55.0,30.03,WSW,250,0.0,-999.0,55,-99.99,,,-99.99,,2013-04-03 23:12:00,
2013-04-03 16:21:00,72.0,55.0,30.03,WSW,247,0.0,-999.0,55,-99.99,,,-99.99,,2013-04-03 23:21:00,
2013-04-03 16:32:00,74.0,56.0,30.02,WSW,246,0.0,-999.0,53,-99.99,,,-99.99,,2013-04-03 23:32:00,
2013-04-03 16:42:00,74.0,56.0,30.02,WSW,246,0.0,-999.0,53,-99.99,,,-99.99,,2013-04-03 23:42:00,
2013-04-03 16:54:00,74.0,55.0,30.02,West,259,1.0,-999.0,51,-99.99,,,-99.99,,2013-04-03 23:54:00,
2013-04-03 17:02:00,74.0,55.0,30.02,West,263,2.0,-999.0,52,-99.99,,,-99.99,,2013-04-04 00:02:00,
2013-04-03 17:12:00,74.0,55.0,30.02,West,263,2.0,-999.0,52,-99.99,,,-99.99,,2013-04-04 00:12:00,
2013-04-03 17:22:00,73.0,55.0,30.02,NW,313,3.0,-999.0,53,-99.99,,,-99.99,,2013-04-04 00:22:00,
2013-04-03 17:32:00,72.0,55.0,30.02,WSW,257,2.0,-999.0,56,-99.99,,,-99.99,,2013-04-04 00:32:00,
2013-04-03 17:42:00,72.0,55.0,30.02,WSW,257,2.0,-999.0,56,-99.99,,,-99.99,,2013-04-04 00:42:00,
2013-04-03 17:52:00,71.0,54.0,30.01,West,260,2.0,-999.0,56,-99.99,,,-99.99,,2013-04-04 00:52:00,
2013-04-03 18:02:00,70.0,55.0,30.03,WSW,247,3.0,-999.0,59,-99.99,,,-99.99,,2013-04-04 01:02:00,
2013-04-03 18:11:00,70.0,55.0,30.03,WSW,247,3.0,-999.0,59,-99.99,,,-99.99,,2013-04-04 01:11:00,
2013-04-03 18:22:00,68.0,55.0,30.03,West,259,3.0,-999.0,63,-99.99,,,-99.99,,2013-04-04 01:22:00,
2013-04-03 18:32:00,66.0,54.0,30.03,SW,226,2.0,-999.0,66,-99.99,,,-99.99,,2013-04-04 01:32:00,
2013-04-03 18:42:00,66.0,54.0,30.03,SW,226,2.0,-999.0,66,-99.99,,,-99.99,,2013-04-04 01:42:00,
2013-04-03 18:52:00,65.0,55.0,30.03,WSW,253,1.0,-999.0,69,-99.99,,,-99.99,,2013-04-04 01:52:00,
2013-04-03 19:02:00,64.0,54.0,30.03,West,268,0.0,-999.0,70,-99.99,,,-99.99,,2013-04-04 02:02:00,
2013-04-03 19:11:00,64.0,54.0,30.03,West,268,0.0,-999.0,70,-99.99,,,-99.99,,2013-04-04 02:11:00,
2013-04-03 19:22:00,64.0,54.0,30.04,West,268,0.0,-999.0,71,-99.99,,,-99.99,,2013-04-04 02:22:00,
2013-04-03 19:31:00,62.0,54.0,30.03,West,268,0.0,-999.0,74,-99.99,,,-99.99,,2013-04-04 02:31:00,
2013-04-03 19:42:00,62.0,54.0,30.03,West,268,0.0,-999.0,74,-99.99,,,-99.99,,2013-04-04 02:42:00,
2013-04-03 19:52:00,62.0,54.0,30.03,West,268,0.0,-999.0,74,-99.99,,,-99.99,,2013-04-04 02:52:00,
2013-04-03 20:01:00,60.0,53.0,30.05,West,265,0.0,-999.0,79,-99.99,,,-99.99,,2013-04-04 03:01:00,
2013-04-03 20:11:00,60.0,53.0,30.05,West,265,0.0,-999.0,79,-99.99,,,-99.99,,2013-04-04 03:11:00,
2013-04-03 20:22:00,59.0,53.0,30.06,West,260,1.0,-999.0,81,-99.99,,,-99.99,,2013-04-04 03:22:00,
2013-04-03 20:33:00,58.0,53.0,30.07,WSW,245,0.0,-999.0,84,-99.99,,,-99.99,,2013-04-04 03:33:00,
2013-04-03 20:43:00,58.0,53.0,30.07,WSW,245,0.0,-999.0,84,-99.99,,,-99.99,,2013-04-04 03:43:00,
2013-04-03 20:53:00,58.0,54.0,30.07,WSW,253,0.0,-999.0,85,-99.99,,,-99.99,,2013-04-04 03:53:00,
2013-04-03 21:02:00,58.0,54.0,30.07,WSW,253,0.0,-999.0,85,-99.99,,,-99.99,,2013-04-04 04:02:00,
2013-04-03 21:12:00,58.0,54.0,30.07,WSW,253,0.0,-999.0,85,-99.99,,,-99.99,,2013-04-04 04:12:00,
2013-04-03 21:22:00,57.0,53.0,30.08,WSW,253,0.0,-999.0,87,-99.99,,,-99.99,,2013-04-04 04:22:00,
2013-04-03 21:33:00,57.0,53.0,30.08,WSW,254,0.0,-999.0,87,-99.99,,,-99.99,,2013-04-04 04:33:00,
2013-04-03 21:43:00,57.0,53.0,30.08,WSW,254,0.0,-999.0,87,-99.99,,,-99.99,,2013-04-04 04:43:00,
2013-04-03 21:52:00,57.0,53.0,30.08,WSW,254,0.0,-999.0,87,-99.99,,,-99.99,,2013-04-04 04:52:00,
2013-04-03 22:02:00,57.0,53.0,30.08,WSW,254,0.0,-999.0,87,-99.99,,,-99.99,,2013-04-04 05:02:00,
2013-04-03 22:12:00,57.0,53.0,30.08,WSW,254,0.0,-999.0,87,-99.99,,,-99.99,,2013-04-04 05:12:00,
2013-04-03 22:22:00,57.0,53.0,30.09,WSW,253,0.0,-999.0,88,-99.99,,,-99.99,,2013-04-04 05:22:00,
2013-04-03 22:32:00,57.0,53.0,30.09,WSW,253,0.0,-999.0,87,-99.99,,,-99.99,,2013-04-04 05:32:00,
2013-04-03 22:42:00,57.0,53.0,30.09,WSW,253,0.0,-999.0,87,-99.99,,,-99.99,,2013-04-04 05:42:00,
2013-04-03 22:52:00,57.0,53.0,30.09,WSW,254,0.0,-999.0,88,-99.99,,,-99.99,,2013-04-04 05:52:00,
2013-04-03 23:02:00,57.0,53.0,30.09,WSW,253,0.0,-999.0,88,-99.99,,,-99.99,,2013-04-04 06:02:00,
2013-04-03 23:12:00,57.0,53.0,30.09,WSW,253,0.0,-999.0,88,-99.99,,,-99.99,,2013-04-04 06:12:00,
2013-04-03 23:21:00,57.0,53.0,30.09,WSW,254,0.0,-999.0,88,-99.99,,,-99.99,,2013-04-04 06:21:00,
2013-04-03 23:32:00,57.0,53.0,30.09,WSW,254,0.0,-999.0,88,-99.99,,,-99.99,,2013-04-04 06:32:00,
2013-04-03 23:42:00,57.0,53.0,30.09,WSW,254,0.0,-999.0,88,-99.99,,,-99.99,,2013-04-04 06:42:00,
2013-04-03 23:52:00,57.0,53.0,30.08,WSW,254,0.0,-999.0,88,-99.99,,,-99.99,,2013-04-04 06:52:00,